Guymon, OK

4:04 PM CST on February 23, 2017 (GMT -0600)
Guymon Municipal

Weather History for KGUY - February, 2012

Change the Weather History Date:

Saturday, February 11, 2012

  Actual Average Record
Temperature  
Mean Temperature 19 °F 38 °F  
Max Temperature 22 °F 53 °F 90 °F (2017)
Min Temperature 16 °F 23 °F 8 °F (2014)
Degree Days  
Heating Degree Days 46 27  
Month to date heating degree days 341 305  
Since 1 July heating degree days 2875 3033  
Cooling Degree Days 0 0  
Month to date cooling degree days 0 0  
Year to date cooling degree days 0 0  
Moisture  
Dew Point 9 °F    
Average Humidity 66    
Maximum Humidity 74    
Minimum Humidity 57    
Precipitation  
Precipitation 0.00 in 0.01 in 0.00 in (2017)
Month to date precipitation 0.19 0.17  
Year to date precipitation 0.21 0.57  
Snow  
Snow 0.00 in - - ()
Month to date snowfall T  
Since 1 July snowfall 9.1  
Snow Depth 0.00 in    
Sea Level Pressure  
Sea Level Pressure 30.57 in    
Wind  
Wind Speed 8 mph (ENE)    
Max Wind Speed 14 mph    
Max Gust Speed 18 mph    
Visibility 10 miles    
Events      
T = Trace of Precipitation, MM = Missing Value Source: NWS Daily Summary

Daily Weather History Graph

Daily Weather History Graph

Search for Another Location

Airport or City:

Trip Planner

Search our weather history database for the weather conditions in past years. The results will help you decide how hot, cold, wet, or windy it might be!

Date:

Astronomy

Feb. 11, 2012 Rise Set
Actual Time 7:39 AM CST 6:21 PM CST
Civil Twilight 7:12 AM CST 6:48 PM CST
Nautical Twilight 6:41 AM CST 7:19 PM CST
Astronomical Twilight 6:11 AM CST 7:49 PM CST
Moon 11:02 PM CST (2/11) 9:31 AM CST (2/11)
Length of Visible Light 11h 36m
Length of Day
10h 42m
Waning Gibbous, 82% of the Moon is Illuminated
Feb 11
Waning Gibbous
Feb 14
Last Quarter
Feb 21
New
Feb 29
First Quarter
Mar 8
Full

Hourly Weather History & Observations

Time (CST) Temp. Windchill Dew Point Humidity Pressure Visibility Wind Dir Wind Speed Gust Speed Precip Events Conditions
12:53 AM 19.0 °F 6.8 °F 10.9 °F 71% 30.45 in 10.0 mi NE 11.5 mph - N/A   Clear
1:53 AM 18.0 °F 6.9 °F 10.0 °F 71% 30.46 in 10.0 mi NE 9.2 mph - N/A   Clear
2:53 AM 16.0 °F 4.4 °F 6.1 °F 65% 30.51 in 10.0 mi NE 9.2 mph - N/A   Clear
3:53 AM 17.1 °F 4.3 °F 8.1 °F 68% 30.52 in 10.0 mi NE 11.5 mph - N/A   Overcast
4:53 AM 17.1 °F 5.0 °F 9.0 °F 71% 30.55 in 10.0 mi NE 10.4 mph - N/A   Overcast
5:53 AM 18.0 °F 6.1 °F 9.0 °F 68% 30.56 in 10.0 mi NE 10.4 mph - N/A   Overcast
6:53 AM 18.0 °F 5.4 °F 7.0 °F 62% 30.58 in 10.0 mi ENE 11.5 mph - N/A   Overcast
7:53 AM 17.1 °F 5.0 °F 6.1 °F 62% 30.61 in 10.0 mi NE 10.4 mph - N/A   Overcast
8:53 AM 18.0 °F 6.9 °F 7.0 °F 62% 30.63 in 10.0 mi ENE 9.2 mph - N/A   Overcast
9:53 AM 19.0 °F 9.0 °F 9.0 °F 65% 30.66 in 10.0 mi East 8.1 mph - N/A   Overcast
10:53 AM 19.0 °F 10.0 °F 8.1 °F 62% 30.65 in 10.0 mi East 6.9 mph - N/A   Overcast
11:53 AM 19.9 °F 10.1 °F 9.0 °F 62% 30.66 in 10.0 mi East 8.1 mph - N/A   Overcast
12:20 PM 19.4 °F 10.4 °F 10.4 °F 68% 30.56 in 10.0 mi NE 6.9 mph - N/A   Overcast
12:53 PM 19.9 °F 10.1 °F 9.0 °F 62% 30.64 in 10.0 mi NE 8.1 mph - N/A   Overcast
1:44 PM 21.2 °F 10.9 °F 8.6 °F 58% 30.50 in 10.0 mi ENE 9.2 mph - N/A   Overcast
1:53 PM 19.9 °F 9.3 °F 9.0 °F 62% 30.60 in 10.0 mi ENE 9.2 mph - N/A   Overcast
2:53 PM 21.0 °F 13.4 °F 8.1 °F 57% 30.58 in 10.0 mi East 5.8 mph - N/A   Overcast
3:53 PM 21.0 °F 11.4 °F 9.0 °F 60% 30.58 in 10.0 mi East 8.1 mph - N/A   Overcast
4:53 PM 21.0 °F 14.6 °F 8.1 °F 57% 30.58 in 10.0 mi Variable 4.6 mph - N/A   Overcast
5:53 PM 21.0 °F 14.6 °F 8.1 °F 57% 30.58 in 10.0 mi East 4.6 mph - N/A   Overcast
6:53 PM 19.9 °F 12.1 °F 8.1 °F 60% 30.58 in 10.0 mi East 5.8 mph - N/A   Overcast
7:53 PM 21.0 °F 16.2 °F 8.1 °F 57% 30.59 in 10.0 mi East 3.5 mph - N/A   Overcast
8:53 PM 21.0 °F 13.4 °F 8.1 °F 57% 30.58 in 10.0 mi ESE 5.8 mph - N/A   Overcast
9:53 PM 19.9 °F 8.6 °F 10.0 °F 65% 30.56 in 10.0 mi SE 10.4 mph - N/A   Overcast
10:53 PM 19.0 °F 8.2 °F 10.0 °F 68% 30.56 in 10.0 mi SSE 9.2 mph - N/A   Overcast
11:53 PM 19.9 °F 11.1 °F 9.0 °F 62% 30.55 in 10.0 mi SSE 6.9 mph - N/A   Overcast